Volver al catálogo

FENGYUN 1C DEB

LostPO
NORAD 30977·DEBRIS·🇨🇳 China

Lanzado May 10, 1999 desde Taiyuan Satellite Launch Center

Loading…

Próximos Pases (próximas 24 horas)

TLE

ObsoletoSource: Space-Track

Época: Sep 25, 2022, 02:26 UTC

1 30977U 99025BBT 22268.10139771  .00001781  00000-0  53231-3 0  9994
2 30977  98.9805 217.3254 0123954  61.8029 313.9593 14.39918521816079

Sigue FENGYUN 1C DEB en tiempo real con AllMySat

Download on the App Store